Belize, Belize

2:08 PM CST on April 23, 2018 (GMT -0600)
Philip S W Goldson International

Weather History for MZBZ - September, 2014

Change the Weather History Date:

Friday, September 19, 2014

  Actual Average Record
Temperature  
Mean Temperature 84 °F -  
Max Temperature 90 °F 87 °F 93 °F (1998)
Min Temperature 78 °F 74 °F 37 °F (2003)
Cooling Degree Days 19    
Growing Degree Days 34 (Base 50)    
Moisture  
Dew Point 78 °F    
Average Humidity 77    
Maximum Humidity 94    
Minimum Humidity 63    
Precipitation  
Precipitation 0.00 in 0.35 in - ()
Sea Level Pressure  
Sea Level Pressure 29.85 in    
Wind  
Wind Speed 4 mph ()    
Max Wind Speed 8 mph    
Max Gust Speed -    
Visibility 8.3 miles    
Events      
Averages and records for this station are not official NWS values.
T = Trace of Precipitation, MM = Missing Value Source: Averaged Metar Reports

Daily Weather History Graph

Daily Weather History Graph

Search for Another Location

Airport or City:

Astronomy

Sep. 19, 2014 Rise Set
Actual Time 5:41 AM CST 5:51 PM CST
Civil Twilight 5:20 AM CST 6:13 PM CST
Nautical Twilight 4:54 AM CST 6:38 PM CST
Astronomical Twilight 4:29 AM CST 7:04 PM CST
Moon 1:55 AM CST (9/19) 2:54 PM CST (9/19)
Length of Visible Light 12h 53m
Length of Day
12h 10m
Waning Crescent, 18% of the Moon is Illuminated
Sep 19
Waning Crescent
Sep 24
New
Oct 1
First Quarter
Oct 8
Full
Oct 15
Last Quarter

Hourly Weather History & Observations

Time (CST) Temp. Heat Index Dew Point Humidity Pressure Visibility Wind Dir Wind Speed Gust Speed Precip Events Conditions
12:00 AM 80 °F - 76 °F 84% 29.88 in 12 mi ESE 3.5 mph - -   Scattered Clouds
3:00 AM 80 °F - 76 °F 86% 29.85 in 12 mi ESE 2.3 mph - -   Partly Cloudy
5:00 AM 78.8 °F - 75.2 °F 89% 29.86 in 6.2 mi ESE 3.5 mph - N/A   Partly Cloudy
6:00 AM 78 °F - 76 °F 93% 29.88 in 12 mi Calm Calm - -   Partly Cloudy
6:00 AM 78.8 °F - 77.0 °F 94% 29.87 in 6.2 mi Calm Calm - N/A   Scattered Clouds
7:00 AM 84.2 °F 96.1 °F 78.8 °F 84% 29.89 in 6.2 mi ESE 3.5 mph - N/A   Scattered Clouds
8:00 AM 84.2 °F 94.1 °F 77.0 °F 79% 29.90 in 6.2 mi ESE 6.9 mph - N/A   Mostly Cloudy
9:00 AM 87 °F - 78 °F 67% 29.91 in 12 mi ESE 6.9 mph - -   Mostly Cloudy
9:00 AM 86.0 °F 96.9 °F 77.0 °F 74% 29.90 in 6.2 mi ESE 6.9 mph - N/A   Mostly Cloudy
10:00 AM 87.8 °F 99.7 °F 77.0 °F 70% 29.90 in 6.2 mi SE 6.9 mph - N/A   Mostly Cloudy
11:00 AM 89.6 °F 104.7 °F 78.8 °F 70% 29.89 in 6.2 mi SE 5.8 mph - N/A   Mostly Cloudy
12:00 PM 89 °F - 79 °F 66% 29.87 in 12 mi SE 5.8 mph - -   Mostly Cloudy
12:00 PM 89.6 °F 104.7 °F 78.8 °F 70% 29.86 in 6.2 mi SE 5.8 mph - N/A   Mostly Cloudy
1:00 PM 89.6 °F 104.7 °F 78.8 °F 70% 29.83 in 6.2 mi ESE 5.8 mph - N/A   Mostly Cloudy
2:00 PM 89.6 °F 104.7 °F 78.8 °F 70% 29.80 in 6.2 mi East 8.1 mph - N/A   Mostly Cloudy
3:00 PM 90 °F - 79 °F 63% 29.80 in 12 mi East 6.9 mph - -   Partly Cloudy
3:00 PM 89.6 °F 104.7 °F 78.8 °F 70% 29.79 in 6.2 mi East 6.9 mph - N/A   Scattered Clouds
4:00 PM 89.6 °F 104.7 °F 78.8 °F 70% 29.79 in 6.2 mi East 5.8 mph - N/A   Scattered Clouds
5:00 PM 86.0 °F 99.3 °F 78.8 °F 79% 29.80 in 6.2 mi East 6.9 mph - N/A   Scattered Clouds
6:00 PM 85 °F - 78 °F 76% 29.82 in 12 mi East 5.8 mph - -   Partly Cloudy
6:00 PM 84.2 °F 96.1 °F 78.8 °F 84% 29.82 in 6.2 mi East 5.8 mph - N/A   Scattered Clouds
9:00 PM 82 °F - 77 °F 81% 29.90 in 12 mi ESE 3.5 mph - -   Scattered Clouds